Location: Great Malvern
(52.1167°N, 2.3167°W)
Time: 00:55:24
(UTC+00:00)

Cosmos 372 Rocket - Pass Details

Date: 18 September 2020
Orbit: 739 x 767 km, 74.1° (Epoch: 23 October)

Event Time Altitude Azimuth Distance (km) Brightness Sun altitude
Rises 20:25:16 0° 213° (SSW) 3,226 7.3 -19.7°
Reaches altitude 10° 20:27:40 10° 216° (SW) 2,302 6.5 -20.0°
Maximum altitude 20:32:51 65° 298° (WNW) 840 4.4 -20.7°
Drops below altitude 10° 20:38:04 10° 21° (NNE) 2,305 6.6 -21.4°
Sets 20:40:28 0° 25° (NNE) 3,230 7.4 -21.7°
